�N����,����,�~����,�C��,���x,�C��,����,���ϕ���,�ő�u�ԕ���,�ő厞����,���˗�,�I�_���x,�n�����x,�ő啗���N��,DTYPE
"21/02/16","00:10",0.0,8.8,70.7,998.4,329.8,8.0,11.8,328.3,0.00,3.8,9.7,"00:05:12",1
"21/02/16","00:20",0.0,8.4,69.2,998.4,328.1,6.0,10.5,340.7,0.00,3.1,9.7,"00:19:52",1
"21/02/16","00:30",0.0,8.5,66.6,998.6,333.1,8.4,12.5,356.6,0.00,2.7,9.6,"00:25:48",1
"21/02/16","00:40",0.0,8.1,64.7,999.1,333.2,7.4,13.2,298.5,0.00,1.9,9.5,"00:38:00",1
"21/02/16","00:50",0.0,7.8,63.1,999.1,328.2,7.6,12.9,325.7,0.00,1.3,9.5,"00:42:00",1
"21/02/16","01:00",0.0,7.7,60.4,999.1,329.8,8.5,13.4,329.4,0.00,0.6,9.2,"00:56:56",1
"21/02/16","01:10",0.0,7.6,57.7,999.3,331.2,8.0,12.8,336.4,0.00,-0.2,9.2,"01:07:46",1
"21/02/16","01:20",0.0,7.5,55.3,999.8,320.1,7.8,11.0,334.1,0.00,-0.8,9.1,"01:14:32",1
"21/02/16","01:30",0.0,7.3,54.8,999.6,319.3,6.4,10.4,318.3,0.00,-1.1,9.1,"01:29:28",1
"21/02/16","01:40",0.0,7.2,55.0,999.8,327.4,7.3,12.9,324.1,0.00,-1.2,9.0,"01:32:00",1
"21/02/16","01:50",0.0,7.2,54.7,1000.0,322.3,6.5,10.3,324.5,0.00,-1.3,8.9,"01:45:44",1
"21/02/16","02:00",0.0,7.0,55.5,1000.5,319.2,6.5,10.5,310.2,0.00,-1.3,8.8,"01:56:24",1
"21/02/16","02:10",0.0,6.9,55.9,1000.8,305.6,6.1,9.4,339.0,0.00,-1.2,8.7,"02:07:22",1
"21/02/16","02:20",0.0,6.6,57.2,1000.8,315.9,5.2,8.0,321.4,0.00,-1.2,8.5,"02:12:56",1
"21/02/16","02:30",0.0,6.6,57.3,1001.0,305.3,5.1,8.0,325.5,0.00,-1.2,8.3,"02:25:20",1
"21/02/16","02:40",0.0,6.5,57.2,1001.2,306.6,5.4,10.5,334.2,0.00,-1.3,8.4,"02:34:40",1
"21/02/16","02:50",0.0,6.3,57.9,1001.2,300.9,4.4,7.5,303.7,0.00,-1.3,8.4,"02:41:12",1
"21/02/16","03:00",0.0,6.2,58.7,1001.5,313.9,4.0,7.0,329.6,0.00,-1.2,8.3,"02:50:56",1
"21/02/16","03:10",0.0,6.2,58.9,1001.5,293.7,3.7,6.2,332.5,0.00,-1.2,8.5,"03:03:36",1
"21/02/16","03:20",0.0,6.2,58.6,1001.7,301.5,4.9,7.1,318.0,0.00,-1.3,8.2,"03:11:36",1
"21/02/16","03:30",0.0,6.3,57.2,1001.9,296.4,5.1,9.1,304.3,0.00,-1.5,8.2,"03:20:56",1
"21/02/16","03:40",0.0,6.3,56.7,1001.9,293.4,5.1,7.7,321.3,0.00,-1.6,8.1,"03:38:08",1
"21/02/16","03:50",0.0,6.2,56.4,1001.7,290.6,5.2,9.6,332.6,0.00,-1.8,8.2,"03:44:24",1
"21/02/16","04:00",0.0,6.0,56.8,1002.2,292.1,4.4,6.5,305.7,0.00,-1.9,8.1,"03:52:00",1
"21/02/16","04:10",0.0,5.7,57.6,1001.9,303.8,4.0,7.0,327.5,0.00,-2.0,7.9,"04:02:08",1
"21/02/16","04:20",0.0,5.5,58.4,1002.2,302.2,3.1,4.8,322.3,0.00,-2.0,7.8,"04:15:44",1
"21/02/16","04:30",0.0,5.4,58.7,1001.9,305.2,2.8,5.7,333.7,0.00,-2.0,7.9,"04:23:12",1
"21/02/16","04:40",0.0,5.3,58.9,1002.2,299.2,2.8,4.3,290.0,0.00,-2.0,7.8,"04:30:02",1
"21/02/16","04:50",0.0,5.6,57.5,1002.2,295.0,3.4,5.0,263.5,0.00,-2.1,7.8,"04:46:00",1
"21/02/16","05:00",0.0,5.8,56.4,1002.2,301.2,3.6,5.2,328.4,0.00,-2.2,8.0,"04:57:12",1
"21/02/16","05:10",0.0,5.7,56.7,1002.4,308.8,3.6,5.2,317.4,0.00,-2.2,7.7,"05:02:16",1
"21/02/16","05:20",0.0,5.7,56.9,1002.9,312.2,3.6,6.8,335.0,0.00,-2.1,7.9,"05:19:52",1
"21/02/16","05:30",0.0,5.6,57.5,1002.9,300.0,3.1,4.5,320.1,0.00,-2.1,7.9,"05:23:20",1
"21/02/16","05:40",0.0,5.6,57.7,1003.1,307.5,3.5,4.2,287.2,0.00,-2.0,7.9,"05:32:24",1
"21/02/16","05:50",0.0,5.6,58.4,1003.4,314.3,3.4,5.0,324.5,0.00,-1.9,7.9,"05:46:56",1
"21/02/16","06:00",0.0,5.5,58.9,1003.8,309.2,2.8,3.6,325.3,0.00,-1.9,7.8,"05:52:00",1
"21/02/16","06:10",0.0,5.5,59.1,1003.4,313.3,2.8,4.1,308.6,0.00,-1.8,7.8,"06:00:08",1
"21/02/16","06:20",0.0,5.5,58.9,1003.6,306.1,3.1,4.3,323.2,0.00,-1.9,8.0,"06:11:28",1
"21/02/16","06:30",0.0,5.5,59.2,1004.1,290.3,2.2,3.4,298.8,0.00,-1.8,7.8,"06:20:32",1
"21/02/16","06:40",0.0,5.6,58.9,1004.5,278.7,3.0,5.6,320.6,0.00,-1.8,7.8,"06:34:24",1
"21/02/16","06:50",0.0,5.6,59.5,1004.3,280.9,2.7,7.4,294.4,0.00,-1.6,7.8,"06:49:52",1
"21/02/16","07:00",0.0,5.4,60.7,1004.5,273.5,3.1,5.9,311.3,0.00,-1.5,7.7,"06:50:32",1
"21/02/16","07:10",0.0,5.5,60.7,1005.0,270.7,3.5,5.4,338.1,0.00,-1.4,7.5,"07:06:40",1
"21/02/16","07:20",0.0,5.5,61.0,1005.0,270.4,3.9,7.7,279.0,0.00,-1.4,7.7,"07:14:40",1
"21/02/16","07:30",0.0,5.5,61.1,1005.0,277.3,2.8,5.0,299.1,0.00,-1.4,7.6,"07:22:08",1
"21/02/16","07:40",0.0,5.5,61.2,1005.2,276.5,3.2,5.0,259.3,0.00,-1.3,7.6,"07:30:48",1
"21/02/16","07:50",0.0,5.5,60.7,1005.5,287.5,3.0,4.8,313.5,0.01,-1.4,7.8,"07:42:08",1
"21/02/16","08:00",0.0,5.7,60.5,1006.0,286.1,3.0,4.4,299.3,0.02,-1.3,7.6,"07:59:52",1
"21/02/16","08:10",0.0,5.8,60.1,1005.5,285.6,3.0,5.8,319.3,0.05,-1.3,7.9,"08:04:32",1
"21/02/16","08:20",0.0,6.0,59.1,1006.0,271.4,2.3,4.1,247.0,0.07,-1.3,7.8,"08:18:00",1
"21/02/16","08:30",0.0,6.1,57.7,1006.2,271.0,2.3,4.1,241.9,0.07,-1.6,7.9,"08:27:12",1
"21/02/16","08:40",0.0,6.2,57.3,1006.4,266.4,2.5,4.9,243.4,0.10,-1.6,8.0,"08:30:42",1
"21/02/16","08:50",0.0,6.1,56.2,1006.7,271.9,3.0,6.3,324.3,0.09,-1.9,8.0,"08:42:32",1
"21/02/16","09:00",0.0,6.2,56.4,1006.7,271.2,2.7,4.5,309.7,0.10,-1.8,8.0,"08:51:12",1
"21/02/16","09:10",0.0,6.2,55.5,1006.7,276.3,3.1,5.2,288.6,0.12,-2.0,8.1,"09:06:02",1
"21/02/16","09:20",0.0,6.6,55.0,1006.7,262.8,2.8,4.7,233.3,0.17,-1.7,8.3,"09:19:08",1
"21/02/16","09:30",0.0,7.2,53.7,1006.9,255.0,3.4,5.4,270.9,0.29,-1.5,8.4,"09:27:44",1
"21/02/16","09:40",0.0,7.3,53.2,1006.7,257.2,3.0,5.6,268.5,0.22,-1.5,8.5,"09:31:48",1
"21/02/16","09:50",0.0,7.4,52.6,1006.9,270.8,2.8,6.5,326.9,0.25,-1.6,8.5,"09:45:42",1
"21/02/16","10:00",0.0,7.1,51.9,1006.7,270.5,3.6,6.4,312.6,0.21,-2.1,8.6,"09:54:50",1
"21/02/16","10:10",0.0,7.7,52.7,1006.7,286.8,2.8,4.8,315.1,0.29,-1.3,8.6,"10:05:12",1
"21/02/16","10:20",0.0,7.8,50.4,1007.1,280.7,2.6,5.5,273.5,0.28,-1.8,8.7,"10:16:10",1
"21/02/16","10:30",0.0,7.4,51.4,1007.1,270.3,3.6,6.2,306.2,0.22,-1.9,8.9,"10:21:04",1
"21/02/16","10:40",0.0,7.7,52.1,1006.9,296.1,3.6,7.3,318.4,0.22,-1.5,8.9,"10:32:24",1
"21/02/16","10:50",0.0,7.7,52.4,1006.9,292.2,3.7,7.3,334.2,0.27,-1.4,8.9,"10:47:20",1
"21/02/16","11:00",0.0,7.7,52.2,1006.9,300.4,3.5,5.6,338.4,0.27,-1.4,9.3,"10:58:46",1
"21/02/16","11:10",0.0,7.9,52.9,1006.9,306.3,4.0,6.7,326.9,0.35,-1.1,9.4,"11:08:04",1
"21/02/16","11:20",0.0,8.2,51.3,1006.7,271.1,2.8,5.8,220.7,0.35,-1.2,9.1,"11:16:04",1
"21/02/16","11:30",0.0,8.8,53.2,1006.4,277.7,3.5,6.5,302.6,0.51,-0.2,9.6,"11:22:24",1
"21/02/16","11:40",0.0,8.8,50.1,1006.4,312.8,2.3,5.4,344.5,0.31,-1.0,9.7,"11:38:40",1
"21/02/16","11:50",0.0,8.1,52.4,1006.4,282.2,4.0,6.0,315.0,0.20,-1.0,9.6,"11:45:24",1
"21/02/16","12:00",0.0,8.7,53.9,1006.2,275.8,3.2,5.4,328.7,0.38,-0.1,9.9,"11:52:02",1
"21/02/16","12:10",0.0,9.2,52.3,1006.0,299.2,2.6,6.4,321.7,0.42,0.0,10.2,"12:02:56",1
"21/02/16","12:20",0.0,9.8,50.8,1006.0,274.6,2.1,4.0,286.9,0.52,0.1,10.2,"12:14:24",1
"21/02/16","12:30",0.0,9.1,51.7,1005.5,279.6,2.7,5.2,345.6,0.29,-0.3,10.5,"12:28:26",1
"21/02/16","12:40",0.0,9.4,49.6,1005.2,316.1,4.2,7.1,323.7,0.56,-0.6,10.7,"12:39:32",1
"21/02/16","12:50",0.0,9.3,48.9,1005.2,301.7,3.4,5.4,0.7,0.34,-0.8,10.8,"12:44:40",1
"21/02/16","13:00",0.0,9.6,47.5,1004.8,273.6,2.8,6.5,333.3,0.45,-1.0,11.0,"12:58:42",1
"21/02/16","13:10",0.0,9.2,48.1,1004.8,274.8,3.6,6.6,226.7,0.27,-1.2,10.8,"13:00:08",1
"21/02/16","13:20",0.0,8.7,49.5,1004.5,270.1,3.4,4.9,302.1,0.12,-1.2,10.8,"13:11:20",1
"21/02/16","13:30",0.0,8.5,50.4,1004.3,256.5,3.2,5.8,237.8,0.12,-1.2,10.8,"13:29:20",1
"21/02/16","13:40",0.0,8.6,51.8,1004.3,253.7,2.8,5.5,237.4,0.12,-0.7,10.8,"13:30:32",1
"21/02/16","13:50",0.0,8.6,50.5,1004.3,242.7,3.2,5.6,234.1,0.15,-1.1,10.7,"13:47:28",1
"21/02/16","14:00",0.0,8.7,49.3,1004.1,245.7,2.6,4.5,260.6,0.13,-1.3,10.5,"13:56:24",1
"21/02/16","14:10",0.0,8.6,48.6,1004.3,257.3,2.5,4.0,289.4,0.08,-1.6,10.4,"14:09:28",1
"21/02/16","14:20",0.0,8.7,49.0,1004.1,307.3,2.3,4.0,335.8,0.09,-1.4,10.4,"14:16:16",1
"21/02/16","14:30",0.0,9.0,47.7,1004.3,306.7,2.1,4.2,319.8,0.12,-1.5,10.5,"14:20:40",1
"21/02/16","14:40",0.0,9.8,47.0,1003.6,291.1,1.8,3.7,317.9,0.24,-0.9,10.6,"14:33:28",1
"21/02/16","14:50",0.0,10.0,46.0,1003.8,293.7,1.7,4.4,331.3,0.20,-1.0,10.7,"14:43:36",1
"21/02/16","15:00",0.0,10.3,45.3,1003.8,296.2,1.0,2.2,325.9,0.19,-1.0,10.7,"14:58:40",1
"21/02/16","15:10",0.0,10.0,47.0,1003.8,272.9,1.5,3.3,129.2,0.13,-0.7,10.5,"15:08:24",1
"21/02/16","15:20",0.0,9.6,48.6,1003.8,153.7,1.1,2.5,194.1,0.10,-0.7,10.6,"15:15:12",1
"21/02/16","15:30",0.0,9.1,48.6,1003.6,134.4,1.0,2.4,112.7,0.06,-1.1,10.7,"15:25:36",1
"21/02/16","15:40",0.0,9.2,49.8,1003.6,207.5,1.0,2.4,174.0,0.06,-0.7,10.9,"15:34:00",1
"21/02/16","15:50",0.0,9.2,46.9,1004.1,271.0,1.5,2.7,303.0,0.06,-1.5,10.6,"15:49:20",1
"21/02/16","16:00",0.0,9.1,46.4,1003.6,317.6,3.2,5.8,342.3,0.04,-1.7,10.4,"15:54:24",1
"21/02/16","16:10",0.0,9.0,46.9,1003.4,304.2,2.1,3.4,318.5,0.03,-1.7,10.6,"16:00:40",1
"21/02/16","16:20",0.0,9.0,46.5,1003.4,323.2,2.8,4.8,326.5,0.03,-1.8,10.5,"16:13:36",1
"21/02/16","16:30",0.0,8.9,46.8,1003.4,281.5,2.1,2.9,269.1,0.02,-1.8,10.3,"16:22:48",1
"21/02/16","16:40",0.0,9.0,47.5,1003.4,301.2,1.7,2.9,333.3,0.02,-1.5,10.4,"16:38:32",1
"21/02/16","16:50",0.0,8.8,48.0,1003.8,281.8,2.0,2.7,275.8,0.01,-1.6,10.2,"16:49:36",1
"21/02/16","17:00",0.0,8.8,48.1,1003.6,295.1,2.5,4.5,306.3,0.00,-1.5,10.3,"16:54:24",1
"21/02/16","17:10",0.0,8.6,49.3,1003.4,301.0,2.6,5.0,330.0,0.00,-1.4,10.2,"17:00:48",1
"21/02/16","17:20",0.0,8.4,50.3,1003.6,315.5,2.5,3.5,312.1,0.00,-1.3,9.9,"17:10:56",1
"21/02/16","17:30",0.0,8.4,50.8,1003.4,319.1,2.1,3.7,303.7,0.00,-1.2,9.9,"17:20:02",1
"21/02/16","17:40",0.0,8.2,51.8,1003.1,320.7,3.0,5.0,318.6,0.00,-1.1,9.9,"17:30:40",1
"21/02/16","17:50",0.0,8.1,53.7,1003.4,313.5,2.3,4.3,337.4,0.00,-0.7,10.0,"17:42:08",1
"21/02/16","18:00",0.0,8.0,53.5,1003.1,343.1,3.1,5.6,356.0,0.00,-0.8,9.9,"17:53:12",1
"21/02/16","18:10",0.0,7.7,55.7,1003.4,323.9,3.1,4.7,323.2,0.00,-0.6,9.8,"18:01:36",1
"21/02/16","18:20",0.0,7.5,57.0,1003.6,316.0,2.3,3.2,321.9,0.00,-0.4,9.8,"18:14:32",1
"21/02/16","18:30",0.0,7.4,57.2,1003.4,313.8,2.5,3.7,325.5,0.00,-0.5,9.7,"18:20:48",1
"21/02/16","18:40",0.0,7.2,59.6,1003.6,313.1,2.3,3.1,320.2,0.00,-0.1,9.7,"18:34:24",1
"21/02/16","18:50",0.0,6.8,60.8,1003.6,317.0,2.1,3.2,320.1,0.00,-0.2,9.3,"18:40:24",1
"21/02/16","19:00",0.0,6.4,63.5,1003.4,314.3,2.0,2.5,327.1,0.00,0.0,9.5,"18:52:00",1
"21/02/16","19:10",0.0,6.3,65.3,1003.8,315.9,2.3,3.3,331.5,0.00,0.3,9.3,"19:07:36",1
"21/02/16","19:20",0.0,5.9,67.3,1003.6,318.6,2.2,3.2,334.5,0.00,0.3,9.4,"19:12:48",1
"21/02/16","19:30",0.0,5.7,68.4,1003.6,287.9,2.1,2.6,293.1,0.00,0.4,9.3,"19:26:16",1
"21/02/16","19:40",0.0,5.5,69.2,1003.6,305.4,2.3,3.3,320.3,0.00,0.4,9.2,"19:30:48",1
"21/02/16","19:50",0.0,5.4,69.8,1003.6,296.4,2.2,3.5,321.7,0.00,0.4,9.1,"19:44:32",1
"21/02/16","20:00",0.0,5.2,70.3,1003.6,307.8,2.1,3.5,329.2,0.00,0.3,9.0,"19:50:48",1
"21/02/16","20:10",0.0,5.0,71.2,1003.4,328.5,2.2,3.7,331.5,0.00,0.3,8.9,"20:03:20",1
"21/02/16","20:20",0.0,4.6,72.2,1003.6,311.0,2.3,2.8,318.7,0.00,0.1,8.8,"20:15:04",1
"21/02/16","20:30",0.0,4.2,73.1,1003.6,304.5,1.8,2.4,319.8,0.00,-0.1,8.6,"20:25:44",1
"21/02/16","20:40",0.0,4.0,74.4,1003.1,297.2,1.7,3.4,324.9,0.00,-0.1,8.6,"20:34:32",1
"21/02/16","20:50",0.0,4.0,75.5,1003.1,298.9,2.3,3.6,309.4,0.00,0.1,8.6,"20:45:52",1
"21/02/16","21:00",0.0,4.4,76.1,1003.8,295.7,2.6,3.7,307.8,0.00,0.6,8.6,"20:56:00",1
"21/02/16","21:10",0.0,4.4,76.9,1003.8,282.4,2.0,2.4,266.2,0.00,0.7,8.5,"21:01:36",1
"21/02/16","21:20",0.0,4.4,77.5,1003.8,290.1,2.2,2.8,315.0,0.00,0.9,8.5,"21:17:44",1
"21/02/16","21:30",0.0,4.4,77.9,1003.6,283.9,1.7,2.4,291.6,0.00,0.9,8.4,"21:22:24",1
"21/02/16","21:40",0.0,4.5,78.1,1003.4,307.6,2.6,3.7,332.2,0.00,1.1,8.4,"21:36:24",1
"21/02/16","21:50",0.0,4.7,78.1,1003.6,299.9,1.8,2.6,310.4,0.00,1.3,8.2,"21:48:08",1
"21/02/16","22:00",0.0,4.7,77.4,1003.4,303.4,2.2,4.0,248.8,0.00,1.1,8.4,"21:58:00",1
"21/02/16","22:10",0.0,5.1,75.7,1003.4,283.0,2.5,3.7,262.8,0.00,1.2,8.3,"22:02:24",1
"21/02/16","22:20",0.0,5.1,74.4,1003.4,274.9,2.0,2.9,262.6,0.00,1.0,8.3,"22:18:00",1
"21/02/16","22:30",0.0,5.2,72.0,1003.6,271.1,2.2,3.9,313.4,0.00,0.6,8.2,"22:28:00",1
"21/02/16","22:40",0.0,5.4,69.1,1003.4,277.7,1.8,3.2,267.8,0.00,0.2,8.1,"22:30:02",1
"21/02/16","22:50",0.0,5.4,66.6,1003.6,253.1,1.3,2.7,208.4,0.00,-0.3,8.2,"22:49:48",1
"21/02/16","23:00",0.0,5.6,63.9,1003.4,252.9,2.5,4.2,210.1,0.00,-0.6,8.0,"22:53:06",1
"21/02/16","23:10",0.0,5.5,63.6,1003.1,271.4,2.8,4.3,277.5,0.00,-0.8,8.2,"23:01:52",1
"21/02/16","23:20",0.0,5.3,64.1,1002.6,260.3,2.2,3.9,286.0,0.00,-0.9,8.4,"23:10:24",1
"21/02/16","23:30",0.0,5.2,64.7,1002.4,267.3,2.1,3.6,264.4,0.00,-0.9,8.0,"23:25:16",1
"21/02/16","23:40",0.0,5.2,65.3,1002.4,265.6,1.6,3.5,269.6,0.00,-0.7,8.1,"23:30:56",1
"21/02/16","23:50",0.0,5.1,65.4,1002.2,289.2,1.7,3.2,320.4,0.00,-0.8,7.8,"23:43:04",1
"21/02/16","24:00",0.0,4.8,67.8,1001.9,328.1,1.8,4.0,316.8,0.00,-0.6,8.0,"23:50:40",1
